EST,Max TemperatureF,Mean TemperatureF,Min TemperatureF,Max Dew PointF,MeanDew PointF,Min DewpointF,Max Humidity, Mean Humidity, Min Humidity, Max Sea Level PressureIn, Mean Sea Level PressureIn, Min Sea Level PressureIn, Max VisibilityMiles, Mean VisibilityMiles, Min VisibilityMiles, Max Wind SpeedMPH, Mean Wind SpeedMPH, Max Gust SpeedMPH,PrecipitationIn, CloudCover, Events, WindDirDegrees
2014-2-1,41,38,35,39,31,21,93,72,53,30.36,30.30,30.22,10,10,10,5,1,,0.00,0,,-1
2014-2-2,50,44,39,41,38,25,93,77,46,29.98,29.95,29.93,10,9,0,12,7,,0.00,4,Fog,238
2014-2-3,33,33,33,32,32,32,93,93,93,30.16,30.11,30.07,0,0,0,10,3,,0.00,,Fog-Snow,60
2014-2-4,,,,,,,,,,,,,,,,,,,,,,
2014-2-5,,,,,,,,,,,,,,,,,,,,,,
2014-2-6,28,26,26,21,21,21,80,78,74,30.26,30.25,30.24,10,10,10,9,9,,0.00,6,,333
2014-2-7,30,28,28,18,17,16,64,60,55,30.24,30.23,30.21,10,10,10,14,12,24,0.00,0,,290
2014-2-8,26,25,24,14,11,10,59,55,51,30.34,30.28,30.23,10,10,10,9,5,,0.00,4,,310
2014-2-9,30,30,30,28,20,16,93,68,55,30.55,30.22,30.03,10,10,10,8,6,,0.00,5,,240
2014-2-10,,,,,,,,,,,,,,,,,,,,,,
2014-2-11,24,22,21,10,9,9,63,56,50,30.36,30.33,30.30,10,10,10,12,8,,0.00,0,,305
2014-2-12,17,,17,7,7,7,63,63,63,30.56,30.56,30.56,10,10,10,5,5,,0.00,0,,-1
2014-2-13,,,,,,,,,,,,,,,,,,,,,,
2014-2-14,39,36,35,30,30,30,81,75,70,29.32,29.27,29.23,10,10,10,21,20,29,0.00,2,,277
2014-2-15,,,,,,,,,,,,,,,,,,,,,,
2014-2-16,30,29,28,18,16,16,64,58,55,29.89,29.88,29.88,10,10,10,18,16,26,0.00,2,,288
2014-2-17,30,24,19,9,5,1,50,44,37,30.33,30.31,30.28,10,10,10,12,11,,0.00,0,,323
2014-2-18,42,38,35,39,35,34,93,91,87,30.16,30.00,29.89,10,7,3,15,12,25,0.00,7,Rain-Snow,220
2014-2-19,44,42,41,43,40,36,93,87,81,30.00,29.87,29.69,10,9,3,12,10,,0.00,4,,167
2014-2-20,,,,,,,,,,,,,,,,,,,,,,
2014-2-21,50,44,44,50,47,45,100,100,100,29.85,29.82,29.78,0,0,0,14,8,,0.00,,Fog,200
2014-2-22,46,,46,36,36,36,66,66,66,29.98,29.98,29.98,10,10,10,18,18,29,0.00,0,,220
2014-2-23,53,50,48,39,37,30,71,60,44,29.94,29.90,29.88,10,10,10,12,8,,0.00,0,,220
2014-2-24,,,,,,,,,,,,,,,,,,,,,,
2014-2-25,30,27,26,16,14,12,59,56,55,30.06,30.02,29.97,10,10,10,12,11,,0.00,7,,280
2014-2-26,30,29,28,19,18,16,69,65,59,29.90,29.84,29.80,10,10,8,14,11,,0.00,5,Snow,284
2014-2-27,32,29,26,21,17,12,69,59,51,29.76,29.69,29.62,10,10,10,20,15,26,0.00,3,Snow,245
2014-2-28,,,,,,,,,,,,,,,,,,,,,,